Location: Street
(51.1247°N, 2.7429°W)
Time: 09:28:20
(UTC+01:00)

PCSat - Pass Details

Date: 01 April 2023
Orbit: 783 x 794 km, 67.1° (Epoch: 29 May)

Event Time Altitude Azimuth Distance (km) Brightness Sun altitude
Rises 00:35:44 0° 322° (NW) 3,302 13.6 -33.9°
Reaches altitude 10° 00:38:10 10° 324° (NW) 2,371 12.7 -34.0°
Enters shadow 00:41:29 38° 330° (NNW) 1,195 10.8 -34.1°
